Location: Newark
(55.2875°N, 3.1864°W)
Time: 00:50:12
(UTC+00:00)

ISS - Pass Details

Date: 26 January 2020
Orbit: 415 x 423 km, 51.6° (Epoch: 28 February)

Event Time Altitude Azimuth Distance (km) Brightness Sun altitude
Rises 18:55:38 0° 244° (WSW) 2,378 1.3 -19.6°
Reaches altitude 10° 18:57:49 10° 237° (WSW) 1,513 -0.1 -19.9°
Enters shadow 19:00:48 38° 177° (S) 670 -2.8 -20.3°
